Flag for France Weather past 2 weeks in Amsterdam Island, French Southern Territories, France

Now
47 °F

Cool.


Feels Like: 39 °F
Forecast: 51 / 54 °F
Wind: 23 mph from West

Location: Martin De Vivies Ile Amsterdam

Current Time: Aug 22, 2014 at 9:30:45 PM

Latest Report: Aug 22, 2014 at 8:00 PM


Visibility: N/A

Pressure: 29.76 "Hg

Humidity: 72%

Dew point: 38 °F

Location of Amsterdam IslandLocation

Historic Weather in Amsterdam Island — Graph

°F

Amsterdam Island temperature yesterday

Maximum temperature yesterday: 56 °F (at 5:00 PM)
Minimum temperature yesterday: 48 °F (at 2:00 AM)
Average temperature yesterday: 54 °F

Past Weeks' High & Low Weather Summary

 TemperatureHumidityPressure
High58 °F (Aug 9, 2:00 PM)96% (Aug 8, 2:00 AM)30.19 "Hg (Aug 8, 2:00 AM)
Low45 °F (Aug 12, 7:00 AM)57% (Aug 22, 12:00 PM)29.32 "Hg (Aug 21, 10:00 PM)
Average52 °F83%29.84 "Hg
* Reported Aug 7 8:00 PM — Aug 22 8:00 PM, Amsterdam Island, Weather by CustomWeather, © 2014

Note: Actual official high and low records may vary slightly from our data, if they occured in-between our weather recording intervals... More about our weather records

Advertising

Amsterdam Island weather history for previous 24 hours

 ConditionsComfort  
Time TempWeatherWind HumidityBarometerVisibility
8:00 PM
Aug 22
47 °FCool.23 mph72%29.76 "HgN/A
7:00 PM46 °FCool.22 mph72%29.77 "HgN/A
6:00 PM45 °FCool.21 mph75%29.78 "HgN/A
5:00 PM46 °FCool.17 mph72%29.78 "HgN/A
4:00 PM46 °FCool.15 mph75%29.78 "HgN/A
3:00 PM51 °FCool.14 mph62%29.78 "HgN/A
2:00 PM51 °FCool.15 mph59%29.77 "HgN/A
1:00 PM49 °FCool.10 mph59%29.77 "HgN/A
12:00 PM48 °FCool.14 mph57%29.78 "HgN/A
11:00 AM49 °FCool.16 mph59%29.77 "HgN/A
10:00 AM47 °FCool.15 mph62%29.75 "HgN/A
9:00 AM46 °FCool.14 mph66%29.74 "HgN/A
8:00 AM45 °FCool.15 mph71%29.71 "HgN/A
7:00 AM45 °FQuite cool.17 mph79%29.67 "HgN/A
6:00 AM45 °FQuite cool.18 mph81%29.62 "HgN/A
5:00 AM46 °FCool.14 mph80%29.58 "HgN/A
4:00 AM46 °FCool.13 mph88%29.54 "HgN/A
3:00 AM46 °FCool.14 mph88%29.47 "HgN/A
2:00 AM48 °FCool.17 mph88%29.44 "HgN/A
1:00 AM50 °FCool.12 mph91%29.38 "HgN/A
12:00 AM53 °FCool.22 mph92%29.35 "HgN/A
11:00 PM
Aug 21
56 °FCool.30 mph94%29.32 "HgN/A
10:00 PM55 °FCool.32 mph95%29.32 "HgN/A
9:00 PM56 °FCool.36 mph95%29.38 "HgN/A
Weather by CustomWeather, © 2014

See weather overviewHow to use our weather pages